Flag for Germany Weather past 2 weeks in Dietzenbach, Hesse, Germany

Now
56 °F

Partly sunny.


Feels Like: 56 °F
Forecast: 31 / 60 °F
Wind: 5 mph from Northwest

Location: Frankfurt / M-Flughafen

Current Time: Apr 28, 2015 at 6:45:26 PM

Latest Report: Apr 28, 2015 at 6:00 PM


Visibility: 37 mi

Pressure: 30.05 "Hg

Humidity: 36%

Dew point: 30 °F

Location of DietzenbachLocation

Historic Weather in Dietzenbach — Graph

°F

Dietzenbach temperature yesterday

Maximum temperature yesterday: 58 °F (at 1:00 AM)
Minimum temperature yesterday: 48 °F (at 10:00 PM)
Average temperature yesterday: 54 °F

Past Weeks' High & Low Weather Summary

 TemperatureHumidityPressure
High77 °F (Apr 15, 6:00 PM)100% (Apr 26, 3:00 AM)30.47 "Hg (Apr 26, 3:00 AM)
Low35 °F (Apr 23, 6:00 AM)20% (Apr 21, 5:00 PM)29.57 "Hg (Apr 27, 7:00 AM)
Average55 °F58%30.07 "Hg
* Reported Apr 13 6:00 PM — Apr 28 6:00 PM, Dietzenbach, Weather by CustomWeather, © 2015

Note: Actual official high and low records may vary slightly from our data, if they occured in-between our weather recording intervals... More about our weather records

Advertising

Dietzenbach weather history for previous 24 hours

 ConditionsComfort  
Time TempWeatherWind HumidityBarometerVisibility
6:00 PM
Tue, Apr 28
56 °FPartly sunny.5 mph36%30.05 "Hg37 mi
4:00 PM57 °FPartly sunny.5 mph35%30.03 "Hg37 mi
3:00 PM55 °FOvercast.6 mph37%30.03 "Hg37 mi
2:00 PM55 °FPartly sunny.9 mph34%30.02 "Hg37 mi
1:00 PM54 °FScattered clouds.6 mph41%30.01 "Hg31 mi
12:00 PM51 °FPartly sunny.7 mph51%30.00 "Hg31 mi
11:00 AM52 °FPartly sunny.7 mph53%29.98 "Hg31 mi
10:00 AM50 °FPartly sunny.6 mph63%29.96 "Hg25 mi
9:00 AM47 °FScattered clouds.5 mph68%29.94 "Hg22 mi
8:00 AM46 °FPartly sunny.3 mph75%29.91 "Hg22 mi
7:00 AM46 °FOvercast.5 mph78%29.87 "Hg19 mi
6:00 AM46 °FOvercast.6 mph76%29.84 "Hg11 mi
4:00 AM47 °FLight rain. Overcast.7 mph74%29.80 "Hg22 mi
3:00 AM47 °FOvercast.6 mph75%29.79 "Hg22 mi
2:00 AM47 °FOvercast.7 mph77%29.78 "Hg22 mi
1:00 AM47 °FLight rain. Overcast.7 mph77%29.76 "Hg22 mi
12:00 AM47 °FLight rain. Overcast.8 mph82%29.75 "Hg22 mi
10:00 PM
Mon, Apr 27
48 °FOvercast.7 mph84%29.72 "Hg31 mi
9:00 PM48 °FLight rain. Overcast.8 mph87%29.70 "Hg25 mi
8:00 PM49 °FOvercast.7 mph84%29.69 "Hg31 mi
7:00 PM50 °FLight rain. Overcast.8 mph89%29.68 "Hg11 mi
6:00 PM52 °FLight rain. Overcast.9 mph88%29.66 "Hg10 mi
Weather by CustomWeather, © 2015

See weather overviewHow to use our weather pages